Total_Precipitation_Accumulation
0.00 0.00 0.00 0.00 0.00 0.00 0.00 0.00 0.01 0.01 0.00 0.01 0.01 0.01 0.01 0.01 0.01 0.00 0.00 0.00 0.00 0.01 0.01 0.01 0.02 0.03 0.02 0.02 0.02 0.02 0.02 0.02 0.02 0.02 0.03 0.06 0.08 0.09 0.11 0.17 0.30 0.31 0.30
0.00 0.00 0.00 0.00 0.00 0.00 0.00 0.00 0.01 0.01 0.00 0.01 0.01 0.01 0.01 0.01 0.01 0.00 0.00 0.00 0.00 0.01 0.01 0.02 0.02 0.02 0.02 0.01 0.01 0.01 0.01 0.01 0.01 0.02 0.05 0.07 0.11 0.15 0.12 0.12 0.24 0.31 0.22
0.00 0.00 0.00 0.00 0.00 0.00 0.00 0.00 0.00 0.00 0.00 0.00 0.00 0.00 0.01 0.01 0.01 0.00 0.00 0.00 0.00 0.01 0.01 0.02 0.02 0.02 0.01 0.01 0.00 0.00 0.00 0.00 0.01 0.02 0.06 0.09 0.09 0.15 0.13 0.08 0.09 0.11 0.12
0.00 0.00 0.00 0.00 0.00 0.00 0.00 0.00 0.00 0.00 0.00 0.00 0.00 0.00 0.00 0.00 0.00 0.01 0.01 0.01 0.01 0.02 0.02 0.02 0.02 0.02 0.01 0.00 0.00 0.00 0.01 0.01 0.02 0.03 0.16 0.31 0.21 0.08 0.08 0.04 0.03 0.06 0.07
0.00 0.00 0.00 0.00 0.00 0.00 0.00 0.00 0.00 0.00 0.00 0.00 0.00 0.00 0.01 0.01 0.01 0.01 0.01 0.01 0.02 0.03 0.03 0.03 0.03 0.03 0.01 0.01 0.00 0.00 0.01 0.01 0.02 0.04 0.12 0.27 0.32 0.15 0.05 0.03 0.03 0.03 0.03
0.00 0.00 0.00 0.00 0.00 0.00 0.00 0.00 0.00 0.01 0.01 0.01 0.01 0.01 0.01 0.01 0.02 0.02 0.02 0.02 0.02 0.04 0.04 0.04 0.04 0.03 0.02 0.01 0.00 0.00 0.00 0.01 0.02 0.04 0.08 0.10 0.18 0.17 0.08 0.04 0.02 0.02 0.02
0.00 0.00 0.00 0.01 0.01 0.00 0.00 0.00 0.00 0.01 0.01 0.01 0.01 0.01 0.01 0.01 0.02 0.02 0.03 0.02 0.02 0.03 0.04 0.04 0.04 0.04 0.04 0.03 0.03 0.02 0.01 0.01 0.01 0.04 0.08 0.09 0.12 0.14 0.13 0.07 0.03 0.02 0.02
0.00 0.00 0.01 0.01 0.01 0.01 0.01 0.01 0.01 0.01 0.01 0.01 0.01 0.01 0.01 0.01 0.02 0.02 0.03 0.03 0.03 0.03 0.03 0.03 0.04 0.03 0.03 0.04 0.05 0.05 0.04 0.03 0.02 0.03 0.07 0.11 0.20 0.19 0.25 0.19 0.09 0.04 0.04
0.01 0.01 0.01 0.02 0.02 0.02 0.01 0.01 0.01 0.01 0.01 0.01 0.01 0.01 0.01 0.01 0.01 0.01 0.02 0.03 0.03 0.03 0.03 0.04 0.03 0.03 0.04 0.05 0.06 0.05 0.05 0.04 0.02 0.03 0.04 0.07 0.16 0.26 0.47 0.43 0.28 0.17 0.13
0.03 0.01 0.02 0.03 0.04 0.04 0.04 0.03 0.03 0.03 0.02 0.02 0.01 0.01 0.01 0.01 0.01 0.01 0.01 0.03 0.04 0.05 0.06 0.06 0.06 0.06 0.08 0.09 0.10 0.11 0.12 0.07 0.02 0.02 0.02 0.05 0.14 0.33 0.58 0.61 0.52 0.43 0.33
0.04 0.04 0.06 0.08 0.10 0.10 0.10 0.11 0.12 0.12 0.12 0.08 0.05 0.04 0.03 0.02 0.03 0.06 0.10 0.13 0.15 0.18 0.20 0.19 0.20 0.20 0.21 0.15 0.18 0.25 0.19 0.05 0.02 0.02 0.02 0.04 0.16 0.42 0.58 0.66 0.60 0.55 0.52
0.12 0.17 0.17 0.18 0.17 0.17 0.18 0.27 0.31 0.31 0.35 0.30 0.26 0.25 0.22 0.17 0.12 0.12 0.24 0.35 0.45 0.57 0.56 0.55 0.72 0.65 0.43 0.24 0.33 0.44 0.23 0.11 0.06 0.05 0.05 0.08 0.19 0.43 0.59 0.60 0.59 0.57 0.56
0.23 0.22 0.21 0.24 0.27 0.30 0.35 0.41 0.43 0.44 0.58 0.67 0.71 0.71 0.69 0.57 0.42 0.35 0.49 0.63 0.66 0.73 0.61 0.79 1.08 0.75 0.61 0.54 0.52 0.51 0.41 0.32 0.19 0.18 0.17 0.19 0.29 0.54 0.69 0.60 0.59 0.60 0.52
0.33 0.36 0.39 0.38 0.40 0.42 0.46 0.46 0.44 0.43 0.51 0.60 0.76 0.93 1.01 0.92 0.76 0.75 0.80 0.68 0.63 0.66 0.81 0.88 0.96 0.82 0.76 0.72 0.69 0.70 0.74 0.57 0.38 0.34 0.39 0.47 0.52 0.65 0.76 0.71 0.67 0.64 0.58
0.56 0.70 0.74 0.70 0.67 0.60 0.53 0.50 0.47 0.45 0.44 0.47 0.62 0.92 1.09 1.10 1.08 1.14 0.98 0.83 0.66 0.85 1.09 1.10 1.01 1.04 1.06 1.13 1.13 1.12 1.04 0.70 0.47 0.40 0.46 0.68 0.70 0.71 0.81 0.86 0.86 0.80 0.78
0.82 1.03 1.06 1.13 1.10 0.91 0.73 0.62 0.59 0.56 0.60 0.68 0.76 0.88 1.07 1.14 1.17 1.17 1.09 0.96 0.91 1.03 1.19 1.20 1.14 1.29 1.31 1.26 1.01 0.86 0.83 0.81 0.67 0.50 0.49 0.61 0.68 0.62 0.68 0.81 0.87 0.86 0.90
1.19 1.47 1.63 1.65 1.59 1.48 1.29 1.05 0.88 0.80 0.79 0.84 0.88 0.83 0.89 0.98 1.00 1.08 1.05 1.00 1.03 1.09 1.11 1.09 1.09 1.24 1.19 1.06 0.88 0.79 0.77 0.74 0.71 0.61 0.50 0.51 0.61 0.64 0.61 0.65 0.72 0.74 0.79
1.78 2.24 2.47 2.43 2.23 1.87 1.55 1.34 1.20 1.12 1.07 0.95 0.87 0.76 0.65 0.71 0.78 0.84 0.80 0.83 0.87 0.93 0.93 0.89 0.91 0.98 1.02 1.08 1.04 0.90 0.91 0.88 0.80 0.79 0.74 0.64 0.62 0.60 0.74 0.79 0.77 0.69 0.76
2.87 3.39 3.34 2.91 2.58 2.04 1.57 1.35 1.32 1.36 1.27 1.11 0.99 0.86 0.71 0.66 0.69 0.74 0.72 0.70 0.69 0.72 0.73 0.70 0.75 0.82 0.86 0.92 0.90 0.89 0.87 0.83 0.75 0.74 0.84 0.72 0.69 0.70 0.76 0.78 0.81 0.73 0.78
3.37 4.04 3.99 3.35 2.65 2.12 1.78 1.55 1.39 1.34 1.22 1.06 0.97 0.85 0.70 0.62 0.61 0.59 0.57 0.53 0.50 0.51 0.54 0.57 0.64 0.72 0.74 0.80 0.76 0.76 0.75 0.67 0.63 0.62 0.58 0.55 0.58 0.57 0.65 0.73 0.71 0.60 0.70
2.66 3.12 3.14 2.52 2.02 1.71 1.43 1.07 0.91 0.88 0.80 0.71 0.69 0.64 0.61 0.56 0.52 0.47 0.41 0.39 0.35 0.34 0.36 0.39 0.46 0.53 0.57 0.64 0.71 0.69 0.62 0.58 0.55 0.52 0.46 0.41 0.41 0.50 0.59 0.69 0.70 0.64 0.54
1.66 1.75 1.38 1.10 0.92 0.78 0.68 0.51 0.41 0.37 0.35 0.34 0.35 0.35 0.33 0.37 0.40 0.39 0.37 0.36 0.34 0.33 0.31 0.34 0.39 0.43 0.45 0.52 0.58 0.56 0.50 0.47 0.43 0.36 0.40 0.38 0.36 0.47 0.56 0.56 0.58 0.60 0.49
1.04 0.90 0.61 0.47 0.47 0.41 0.33 0.25 0.22 0.21 0.21 0.21 0.22 0.22 0.22 0.23 0.26 0.29 0.33 0.36 0.35 0.31 0.29 0.30 0.32 0.32 0.33 0.37 0.45 0.49 0.42 0.36 0.32 0.29 0.30 0.31 0.33 0.38 0.42 0.51 0.49 0.41 0.43
0.47 0.48 0.51 0.52 0.41 0.30 0.26 0.19 0.14 0.13 0.13 0.13 0.15 0.15 0.17 0.16 0.16 0.18 0.24 0.29 0.30 0.31 0.30 0.24 0.24 0.29 0.29 0.26 0.30 0.36 0.32 0.31 0.35 0.34 0.31 0.31 0.34 0.34 0.33 0.37 0.40 0.38 0.36
0.28 0.47 0.68 0.66 0.45 0.31 0.27 0.23 0.21 0.19 0.18 0.17 0.17 0.18 0.20 0.20 0.20 0.17 0.17 0.22 0.27 0.33 0.38 0.34 0.31 0.29 0.28 0.24 0.24 0.32 0.32 0.25 0.29 0.34 0.34 0.31 0.31 0.23 0.21 0.23 0.23 0.27 0.27
0.26 0.33 0.42 0.49 0.56 0.51 0.46 0.37 0.34 0.33 0.31 0.28 0.26 0.25 0.25 0.26 0.28 0.27 0.27 0.30 0.33 0.33 0.34 0.36 0.39 0.37 0.35 0.31 0.24 0.27 0.40 0.36 0.25 0.28 0.29 0.30 0.28 0.15 0.15 0.19 0.21 0.22 0.27